Temperature
19 18 18 18 17 17 17 17 16 16 16 16 16 16 16 16 16 16 16 15 15 15 15 15 15 15 15 15 15 15 15 15 16 16 16 17 17 17 17 17 17 17 17
19 19 18 18 18 17 17 17 16 16 16 16 16 15 15 15 16 16 15 15 15 15 15 15 15 15 15 15 15 15 15 15 16 16 16 17 17 17 17 17 17 17 17
20 20 19 19 18 18 17 17 16 15 15 15 15 14 15 15 15 15 15 15 14 14 14 14 14 15 15 15 15 15 15 15 16 16 16 17 17 18 18 18 18 18 18
21 20 20 19 19 18 17 17 16 15 15 14 14 13 13 13 14 14 14 14 14 14 14 14 14 14 14 14 15 15 15 15 16 16 16 17 17 17 18 18 18 18 18
21 20 20 19 19 18 17 17 16 15 14 14 13 13 12 12 12 13 13 13 13 14 14 14 14 14 14 14 14 14 15 15 15 16 16 16 17 17 17 18 18 18 18
21 21 20 19 19 18 17 17 16 15 14 13 13 12 12 12 12 12 12 13 13 13 14 14 13 13 13 13 14 14 14 14 15 15 16 16 16 17 18 18 18 18 18
22 21 20 19 18 18 17 16 15 14 14 13 12 12 11 11 11 12 12 12 12 12 13 13 13 13 12 13 13 13 13 14 14 15 15 16 16 17 17 18 18 19 19
22 21 20 19 18 18 17 16 15 14 13 12 12 11 11 11 11 11 11 11 11 11 12 12 12 12 12 12 12 12 12 13 13 14 14 15 16 16 17 17 18 18 19
22 21 20 19 18 17 16 15 14 13 13 12 11 11 11 10 10 10 10 10 10 10 11 11 11 11 11 11 11 12 12 12 12 13 13 14 15 16 16 17 17 18 18
21 20 19 18 17 16 15 14 14 13 12 12 11 11 10 10 9 9 9 9 9 9 9 10 10 10 10 11 11 11 11 11 12 12 13 13 14 14 15 16 17 17 17
20 19 18 17 16 15 15 14 13 12 12 11 11 10 10 9 9 9 9 9 9 9 9 9 9 9 9 10 10 10 11 11 11 11 12 12 13 13 14 15 15 16 16
19 18 17 16 15 15 14 13 12 12 11 11 10 10 9 9 9 9 8 8 8 8 8 8 8 8 9 9 9 10 10 11 11 11 11 11 12 12 13 14 14 15 16
19 18 17 16 15 14 13 12 12 11 11 10 10 9 9 9 8 8 8 8 8 8 8 8 8 8 8 8 9 9 10 10 10 11 11 11 11 11 12 13 13 14 15
18 17 16 15 14 13 12 12 11 11 10 10 9 9 9 8 8 8 8 8 8 8 7 7 7 7 8 8 8 8 9 9 10 10 10 11 11 11 11 12 12 13 14
18 16 15 15 14 13 12 12 11 11 10 10 9 9 9 8 8 8 8 8 8 7 7 7 7 7 7 7 8 8 8 9 9 10 10 10 10 11 11 11 11 12 13
17 16 15 14 13 12 12 11 11 10 10 9 9 8 8 8 8 8 8 8 7 7 7 7 7 7 7 7 7 8 8 8 9 9 9 10 10 10 10 10 11 11 12
16 15 14 14 13 12 12 11 10 10 9 9 8 8 8 8 8 8 7 7 7 7 7 7 7 6 7 7 7 7 7 8 8 8 9 9 10 10 10 10 10 10 11
16 15 14 13 13 12 11 11 10 10 9 9 8 8 8 8 7 7 7 7 7 7 7 7 7 6 6 6 6 7 7 7 8 8 8 9 9 10 10 10 10 10 11
15 14 13 13 12 12 11 10 10 9 9 8 8 8 7 7 7 7 7 7 7 7 7 7 6 6 6 6 6 6 6 7 7 8 8 9 9 10 10 10 10 10 10
14 14 13 12 12 11 10 10 9 9 8 8 8 8 7 7 7 7 7 7 7 7 7 7 6 6 6 6 6 6 6 6 7 7 8 8 9 9 9 10 10 10 10
14 14 13 12 11 11 10 9 9 9 8 8 8 8 7 7 7 7 7 7 7 7 7 7 7 7 6 6 6 6 6 6 7 7 8 8 9 9 9 9 9 9 10
14 13 12 12 11 10 10 9 9 8 8 8 8 8 7 7 7 7 8 7 7 7 7 7 7 7 6 6 6 6 6 6 7 7 8 8 8 9 9 9 9 9 9
14 13 12 11 11 10 9 9 8 8 8 8 8 8 8 8 8 8 8 8 7 7 7 7 6 6 6 6 6 6 6 6 6 7 7 8 8 9 9 9 9 9 9
13 12 12 11 11 10 9 9 8 8 8 8 8 8 7 8 8 8 8 8 7 7 7 6 6 6 6 6 6 6 6 6 7 7 7 8 8 8 9 9 9 9 9
13 12 11 11 10 10 9 8 8 8 8 8 7 7 7 8 8 8 8 8 8 7 7 6 6 6 6 6 6 6 6 6 7 7 7 7 8 8 8 9 9 9 9
13 12 11 11 10 9 9 8 8 7 7 7 7 7 7 7 8 8 8 8 8 8 7 7 6 6 6 6 6 6 6 6 7 7 7 7 8 8 8 8 9 9 9
Wind_Speed
9 7 6 7 7 5 4 4 5 5 5 5 6 6 6 5 5 2 3 5 5 6 4 5 5 3 3 3 4 4 5 5 6 6 6 7 10 10 10 10 10 12 13
8 6 5 4 4 4 3 3 6 7 7 6 7 6 6 6 6 2 2 2 4 5 5 5 5 5 4 4 3 2 3 4 4 4 4 4 5 7 12 10 11 12 10
7 5 3 2 1 2 2 4 3 4 6 8 7 8 8 7 6 6 4 3 4 5 3 4 4 5 5 4 3 3 3 3 4 5 5 3 3 4 7 11 11 10 9
5 4 1 1 3 4 4 3 3 4 5 7 8 10 10 9 9 7 6 7 6 6 4 3 3 5 5 4 4 3 3 3 4 5 5 5 2 2 1 5 8 9 8
2 1 2 3 4 5 5 4 4 5 5 7 9 10 9 9 9 10 11 10 8 7 5 2 1 3 4 4 5 5 4 3 4 4 4 5 4 5 3 3 3 5 6
2 2 3 3 4 5 5 5 5 6 6 7 8 9 10 9 10 11 11 10 7 6 5 3 1 2 3 4 5 5 6 4 4 5 5 4 4 4 4 4 4 5 6
3 2 3 5 5 6 5 5 6 7 7 7 7 8 9 10 11 11 9 9 8 8 7 6 2 3 3 4 4 5 5 5 6 5 5 6 6 5 4 4 4 4 4
3 6 7 7 7 8 7 7 6 6 6 7 7 7 9 9 8 10 10 10 9 9 9 8 7 6 5 6 5 4 5 5 5 6 6 6 7 6 5 4 3 2 3
7 8 9 10 9 8 7 7 7 6 6 7 8 8 7 7 9 9 10 10 9 11 10 10 9 9 8 7 6 6 6 5 5 5 5 5 6 7 7 5 3 3 4
9 11 11 11 10 9 7 7 7 7 7 8 7 10 8 8 8 9 9 10 10 10 10 10 10 10 10 9 8 7 8 7 7 6 6 5 5 5 6 6 5 4 3
11 11 11 10 10 10 9 8 8 8 7 7 7 7 8 8 9 8 9 8 9 9 10 10 10 11 11 10 9 9 9 9 8 7 7 7 6 5 5 5 6 5 4
10 11 11 10 10 11 11 10 9 9 8 8 8 8 8 9 10 10 9 9 9 10 10 10 11 12 12 11 11 11 12 10 10 10 9 8 7 7 5 5 6 6 5
10 10 10 10 11 11 11 12 12 11 11 10 9 9 10 11 11 10 10 10 10 10 11 10 11 12 12 12 12 12 12 12 11 11 11 10 9 8 6 6 6 5 5
9 10 9 8 9 9 9 11 12 12 12 11 12 11 11 11 11 11 10 10 10 11 11 11 11 11 12 12 13 13 13 12 12 11 11 10 10 10 9 8 7 6 5
10 11 10 9 9 9 9 10 11 10 10 12 12 12 12 11 11 11 11 11 11 14 12 11 12 12 12 13 13 12 15 13 13 12 12 12 12 13 11 9 8 7 6
12 12 12 11 11 10 10 10 11 10 10 11 13 13 13 12 12 12 12 12 11 12 12 12 14 14 15 16 14 11 11 11 11 11 12 12 12 14 15 14 12 10 8
12 13 12 11 10 10 9 10 10 11 11 12 13 13 13 13 13 15 14 13 13 12 13 13 14 14 14 17 17 16 13 12 11 11 11 14 15 14 11 13 14 13 12
12 12 12 12 12 11 11 10 12 11 12 13 13 13 13 15 14 14 14 13 12 12 12 13 14 13 15 17 17 16 14 13 12 12 11 11 11 11 11 12 12 11 12
10 11 12 13 12 12 11 12 13 12 13 14 14 14 15 15 15 15 14 13 12 12 13 13 13 13 14 16 15 14 11 11 13 13 12 11 12 12 13 11 11 11 10
10 11 12 12 11 10 11 12 13 13 13 14 15 15 15 15 16 15 14 13 11 13 13 13 12 12 12 13 14 13 9 10 10 10 9 11 12 14 14 11 10 10 9
10 11 11 11 10 10 10 12 13 12 13 14 15 16 15 15 15 13 11 11 11 12 12 12 11 10 10 10 11 11 9 8 8 8 7 8 13 14 14 11 8 8 8
11 11 10 10 9 9 10 12 12 12 13 14 15 16 16 16 14 12 12 11 11 11 10 10 9 7 6 6 6 7 8 5 5 5 6 6 12 14 14 11 8 8 6
10 11 11 11 10 9 10 12 12 12 13 15 16 16 17 15 13 12 11 10 9 8 8 7 7 7 5 3 3 5 6 5 3 1 1 4 10 11 10 11 10 8 5
10 10 12 12 11 10 11 11 11 12 13 15 16 15 15 15 12 9 9 8 8 8 8 8 7 6 5 4 2 2 4 6 6 4 3 5 8 7 7 8 8 7 7
9 10 10 11 12 11 11 11 11 12 14 15 15 15 14 14 11 10 8 8 6 5 6 7 7 6 5 4 5 4 1 1 2 3 4 4 5 6 7 7 8 8 8
9 10 11 12 12 12 11 10 10 11 13 14 14 12 13 12 11 10 9 6 6 5 7 7 6 6 4 5 5 4 4 3 3 1 3 5 6 7 8 8 8 9 9
Wind_Direction
116 115 114 106 100 92 76 55 31 26 355 2 343 332 331 332 313 327 36 8 351 339 326 323 309 284 268 263 256 246 253 244 232 237 248 239 225 215 216 216 219 221 221
128 127 129 118 103 89 54 44 33 15 358 357 322 304 319 315 303 338 359 10 352 336 333 335 321 314 291 284 285 266 259 259 234 224 238 241 229 222 219 210 214 219 217
138 139 133 109 58 52 26 27 29 9 3 345 327 335 328 315 320 334 321 355 336 319 324 323 324 320 309 288 275 259 252 264 272 237 228 236 237 234 209 206 208 207 207
150 151 179 357 337 353 1 22 28 18 1 346 337 331 321 319 325 327 326 329 313 296 291 308 333 330 319 320 304 281 255 247 269 285 259 248 261 272 270 203 201 196 199
179 183 287 307 326 339 339 355 23 19 4 345 330 326 321 326 323 324 315 311 299 281 269 263 318 331 324 340 339 333 306 262 253 272 285 266 250 228 240 228 206 189 187
223 236 284 324 344 336 339 356 9 5 354 339 328 322 322 321 314 304 297 299 298 296 291 269 231 303 327 338 328 323 314 306 288 281 280 278 262 238 232 222 207 192 194
247 286 324 340 344 333 338 349 355 352 344 329 318 318 316 309 298 298 311 321 318 314 316 321 296 279 279 288 292 294 295 302 300 289 282 281 277 280 262 237 224 201 184
348 348 343 350 344 342 349 351 351 339 329 321 315 311 300 301 311 325 326 313 301 299 305 311 307 288 266 263 263 274 276 273 278 285 294 296 293 297 290 269 245 225 194
354 347 352 351 350 353 353 345 340 334 329 321 310 295 306 323 319 312 303 303 308 308 313 319 309 300 287 265 251 251 256 262 258 266 276 287 291 301 299 292 272 233 220
352 354 350 344 347 345 343 343 342 337 326 318 318 320 327 312 305 306 304 300 299 300 300 296 295 292 287 277 257 249 244 241 242 239 246 257 275 285 292 299 287 263 242
352 346 341 343 342 337 338 340 338 330 323 323 324 317 311 311 306 299 298 302 306 307 303 300 296 292 286 279 268 256 248 240 240 239 235 232 240 262 275 286 287 272 253
347 341 339 341 339 335 334 332 331 324 325 327 320 314 313 310 307 306 304 301 296 295 295 293 292 288 285 280 274 265 257 243 236 232 230 229 229 230 244 260 272 272 258
345 341 341 341 335 334 330 327 325 324 325 321 319 317 313 309 305 302 300 298 295 292 292 289 286 284 283 281 278 271 263 254 244 234 227 224 220 223 223 231 248 264 264
349 344 342 337 334 328 326 324 321 320 318 320 318 312 308 305 302 300 299 297 295 294 289 286 285 282 280 278 276 273 267 260 253 242 232 224 220 218 215 221 224 233 247
342 340 336 331 329 326 324 320 318 318 319 316 312 309 307 304 300 298 297 295 293 293 290 290 287 283 279 272 265 262 266 259 253 247 238 230 223 216 212 215 212 213 218
338 334 331 331 327 324 320 322 319 319 319 315 311 309 306 303 302 300 296 294 292 292 291 288 285 282 279 279 281 275 274 272 259 251 244 238 232 222 210 208 199 198 207
334 333 333 328 323 319 322 321 320 319 317 314 311 310 309 307 306 306 304 299 297 295 290 286 282 278 273 269 268 265 265 266 258 250 245 242 233 214 206 204 200 202 204
337 335 328 324 321 323 323 321 319 317 315 313 313 314 312 309 308 304 300 298 298 294 290 286 283 279 274 267 258 254 256 257 253 245 240 235 241 229 208 202 203 206 205
335 327 324 322 322 323 326 323 318 316 315 316 317 316 313 309 306 303 301 301 298 295 290 288 283 278 274 268 258 245 252 249 248 242 236 229 229 225 211 206 203 203 203
329 326 325 322 322 329 329 322 318 317 319 321 318 314 310 306 303 300 300 300 299 296 295 292 288 284 277 270 256 236 243 243 244 241 236 232 230 216 202 204 202 205 202
329 330 329 324 325 328 327 320 318 320 324 320 314 311 309 306 300 299 300 301 302 301 300 297 293 287 279 275 255 231 237 237 234 236 228 226 213 203 200 207 207 207 199
331 333 327 324 325 329 327 321 322 325 323 319 314 312 311 309 307 305 303 304 304 305 305 306 305 300 292 279 262 229 229 246 238 239 235 218 196 195 197 203 197 184 186
332 329 327 325 327 331 329 323 325 326 323 319 316 314 311 308 305 304 307 309 308 311 313 317 317 317 314 300 239 217 215 221 236 269 275 193 183 185 198 208 191 183 197
328 329 327 325 327 331 330 327 327 327 322 319 317 314 312 310 311 310 311 311 315 319 321 324 327 328 334 345 340 218 201 201 212 222 202 167 172 193 212 194 196 206 213
326 327 324 324 326 330 328 330 331 329 322 319 316 316 314 311 310 310 307 304 312 311 302 313 321 327 333 352 356 356 339 200 179 199 191 196 189 200 212 205 197 204 211
326 325 326 325 326 326 328 332 334 330 321 317 318 316 313 313 313 313 314 295 282 258 249 258 276 294 302 324 334 348 4 19 23 243 221 219 223 220 218 213 206 205 209
Height
1517 1518 1518 1519 1519 1518 1518 1517 1516 1515 1514 1512 1510 1509 1507 1506 1504 1502 1499 1497 1495 1493 1490 1488 1486 1484 1483 1482 1482 1482 1483 1485 1487 1489 1491 1491 1493 1493 1494 1496 1498 1500 1502
1517 1518 1519 1519 1519 1519 1518 1517 1515 1514 1512 1510 1509 1507 1505 1503 1502 1500 1497 1494 1492 1490 1488 1486 1483 1482 1480 1480 1480 1479 1480 1482 1484 1486 1487 1487 1488 1488 1489 1490 1492 1494 1497
1515 1517 1518 1519 1519 1518 1517 1516 1513 1511 1510 1508 1506 1504 1502 1500 1499 1497 1495 1492 1490 1488 1486 1483 1481 1479 1478 1478 1477 1478 1478 1479 1480 1482 1484 1484 1483 1484 1484 1485 1487 1490 1492
1514 1516 1517 1517 1517 1517 1516 1514 1512 1509 1507 1505 1503 1501 1499 1497 1495 1493 1491 1489 1487 1485 1483 1481 1479 1478 1476 1475 1475 1475 1476 1477 1477 1478 1480 1482 1482 1482 1481 1483 1484 1487 1489
1512 1514 1515 1515 1515 1515 1514 1512 1510 1507 1505 1503 1501 1499 1496 1494 1491 1489 1486 1485 1483 1482 1480 1478 1477 1475 1474 1473 1473 1473 1473 1474 1474 1475 1477 1478 1479 1480 1481 1481 1483 1485 1486
1511 1512 1513 1513 1513 1512 1511 1509 1507 1505 1502 1500 1498 1496 1493 1490 1487 1484 1482 1480 1479 1478 1477 1475 1473 1472 1472 1471 1470 1470 1470 1470 1471 1472 1473 1475 1476 1477 1478 1479 1480 1482 1484
1508 1509 1510 1510 1510 1509 1508 1506 1504 1501 1499 1497 1495 1492 1489 1486 1483 1481 1479 1477 1475 1474 1473 1472 1470 1469 1468 1468 1467 1467 1466 1466 1467 1467 1469 1471 1472 1474 1475 1477 1478 1479 1481
1505 1507 1508 1508 1507 1506 1505 1503 1500 1498 1496 1494 1491 1488 1485 1482 1480 1477 1475 1472 1471 1470 1469 1467 1466 1465 1464 1464 1463 1463 1463 1463 1463 1463 1464 1466 1467 1469 1471 1473 1474 1476 1477
1504 1506 1506 1506 1505 1503 1501 1500 1497 1495 1492 1490 1487 1484 1481 1478 1475 1472 1470 1468 1466 1464 1463 1461 1460 1459 1459 1459 1458 1458 1458 1459 1458 1458 1459 1460 1462 1464 1466 1468 1470 1473 1474
1504 1504 1504 1504 1502 1501 1499 1496 1494 1491 1489 1486 1483 1480 1477 1473 1470 1467 1465 1462 1460 1458 1456 1455 1454 1453 1453 1453 1453 1453 1453 1453 1453 1454 1454 1455 1457 1459 1461 1463 1465 1468 1470
1503 1503 1503 1501 1500 1498 1496 1493 1491 1488 1485 1482 1478 1475 1472 1469 1465 1463 1460 1457 1455 1452 1450 1449 1447 1446 1446 1446 1446 1446 1447 1447 1448 1449 1449 1449 1451 1452 1455 1457 1460 1462 1466
1502 1502 1501 1499 1497 1495 1493 1490 1487 1484 1481 1478 1474 1471 1467 1464 1461 1458 1455 1452 1449 1447 1444 1442 1440 1439 1439 1439 1439 1439 1440 1441 1442 1443 1443 1444 1445 1446 1448 1451 1453 1457 1460
1501 1500 1499 1497 1495 1492 1490 1487 1484 1481 1478 1474 1470 1466 1463 1459 1456 1452 1449 1446 1443 1441 1438 1436 1434 1432 1431 1431 1431 1431 1432 1433 1434 1436 1437 1438 1439 1439 1441 1443 1447 1450 1454
1499 1498 1496 1494 1492 1489 1486 1483 1480 1477 1474 1470 1466 1462 1458 1454 1451 1447 1444 1441 1438 1435 1432 1430 1427 1426 1424 1423 1423 1423 1424 1425 1426 1428 1430 1431 1432 1433 1435 1437 1440 1444 1447
1497 1496 1494 1491 1488 1486 1483 1480 1477 1473 1470 1465 1462 1458 1454 1450 1446 1442 1439 1435 1432 1429 1426 1423 1420 1418 1417 1416 1415 1415 1415 1417 1418 1420 1422 1424 1426 1428 1429 1431 1433 1437 1440
1495 1493 1491 1488 1485 1482 1479 1476 1473 1469 1466 1461 1457 1453 1449 1445 1441 1437 1433 1429 1426 1422 1419 1416 1413 1410 1409 1408 1408 1407 1407 1408 1409 1411 1414 1417 1420 1421 1424 1425 1427 1430 1433
1492 1490 1488 1485 1482 1479 1476 1472 1469 1465 1461 1457 1453 1448 1444 1440 1436 1431 1427 1423 1420 1416 1412 1408 1405 1402 1399 1398 1398 1398 1398 1399 1400 1403 1406 1409 1412 1415 1417 1419 1421 1424 1427
1490 1487 1485 1482 1479 1475 1472 1469 1465 1461 1457 1453 1448 1444 1439 1434 1430 1425 1421 1417 1413 1409 1405 1401 1397 1393 1391 1390 1389 1388 1389 1389 1391 1394 1398 1401 1405 1408 1411 1413 1415 1417 1420
1487 1484 1481 1478 1475 1472 1468 1465 1461 1457 1453 1448 1443 1438 1434 1428 1424 1419 1415 1412 1407 1402 1398 1393 1389 1386 1382 1381 1379 1379 1379 1381 1383 1387 1390 1394 1398 1401 1405 1408 1410 1412 1414
1484 1481 1478 1475 1471 1468 1464 1460 1457 1453 1448 1444 1438 1433 1428 1423 1418 1414 1410 1406 1402 1396 1391 1387 1383 1379 1375 1373 1371 1371 1372 1373 1376 1380 1384 1388 1392 1396 1399 1402 1405 1408 1410
1481 1478 1474 1471 1468 1464 1460 1456 1453 1448 1444 1438 1433 1428 1423 1418 1414 1410 1406 1401 1396 1391 1386 1381 1377 1373 1369 1367 1365 1366 1367 1368 1371 1374 1378 1382 1386 1391 1395 1398 1401 1404 1407
1478 1475 1471 1468 1465 1461 1457 1453 1448 1444 1439 1434 1428 1423 1418 1413 1410 1405 1401 1397 1392 1387 1382 1377 1373 1369 1366 1363 1362 1362 1363 1365 1368 1371 1374 1378 1382 1386 1390 1394 1398 1401 1404
1474 1471 1468 1465 1461 1458 1453 1449 1444 1439 1434 1429 1424 1418 1413 1409 1405 1402 1397 1393 1389 1384 1379 1375 1371 1367 1364 1361 1360 1360 1361 1363 1365 1368 1371 1374 1378 1383 1387 1391 1394 1397 1400
1471 1468 1465 1461 1458 1454 1450 1446 1441 1436 1430 1425 1420 1414 1410 1405 1402 1398 1394 1390 1386 1381 1377 1373 1369 1366 1363 1361 1360 1359 1360 1362 1364 1367 1369 1373 1376 1380 1384 1387 1390 1393 1396
1468 1465 1462 1458 1455 1451 1446 1442 1437 1432 1427 1421 1416 1411 1407 1403 1399 1395 1392 1387 1383 1379 1375 1371 1368 1365 1363 1361 1360 1359 1360 1361 1364 1367 1369 1372 1374 1377 1381 1384 1386 1389 1392
1465 1462 1459 1455 1451 1447 1443 1438 1434 1429 1423 1418 1413 1408 1404 1400 1396 1392 1388 1385 1381 1377 1372 1369 1366 1363 1362 1360 1359 1359 1360 1361 1363 1366 1368 1370 1372 1375 1377 1380 1382 1385 1387